Wind_Speed
42 39 42 44 36 41 37 33 34 44 39 39 40 49 50 48 52 66 67 64 65 68 65 65 64 64 69 71 74 79 83 86 87 90 93 96 99 104 106 104 106 104 99 92 89 88 84 81 79
45 42 46 49 37 44 35 33 40 43 41 40 40 41 44 47 54 73 69 74 74 66 62 63 60 62 63 64 66 72 77 83 85 86 90 98 100 99 102 108 107 105 105 98 94 90 88 84 82
47 43 48 46 45 47 37 40 46 50 48 41 46 52 52 55 67 76 75 78 73 67 64 60 55 54 54 53 56 59 63 71 79 84 85 87 93 101 101 102 105 107 104 104 99 94 91 87 85
52 43 43 42 49 46 44 43 45 49 42 46 51 52 57 61 76 79 77 81 75 69 66 60 57 55 52 47 45 47 51 58 68 76 84 87 88 89 96 105 105 103 108 107 105 100 94 89 89
51 44 40 46 47 44 46 46 49 46 41 49 52 56 55 69 76 80 81 79 71 67 61 60 59 55 49 41 39 40 43 46 54 65 74 81 86 86 86 90 103 103 105 104 108 103 102 96 90
51 42 43 49 49 47 48 49 45 44 43 50 53 57 64 73 75 85 82 72 69 65 63 63 61 53 42 37 37 38 39 41 46 54 60 68 76 82 83 82 88 101 103 105 107 108 102 100 97
48 48 44 49 47 45 51 48 42 37 53 52 57 58 69 76 78 87 83 71 67 63 61 64 58 49 38 35 35 37 41 38 40 46 52 58 61 68 75 80 82 84 93 103 109 112 108 105 100
57 55 49 49 47 39 47 42 43 51 55 57 55 63 71 78 80 87 78 70 66 62 63 63 55 44 36 39 36 36 35 34 37 41 45 49 54 57 60 67 74 74 78 90 104 111 109 108 104
61 49 52 51 40 48 47 47 54 54 56 57 63 70 82 83 87 87 78 71 64 64 64 60 50 40 37 39 38 35 32 32 30 32 36 40 43 47 48 51 56 63 72 79 90 104 110 110 107
51 54 52 45 43 51 51 54 52 57 57 60 68 75 79 84 89 83 74 67 63 67 64 56 43 37 38 37 33 32 31 30 25 25 28 31 34 37 38 39 42 48 61 72 79 91 105 112 107
55 59 55 46 41 45 45 48 56 59 56 60 71 73 78 87 79 82 71 62 63 65 61 46 37 38 37 33 29 28 28 27 21 19 20 24 26 28 29 31 33 40 50 63 72 80 93 107 106
59 58 50 48 44 55 54 54 59 58 60 69 74 73 80 84 82 84 68 62 64 63 52 39 38 36 33 29 27 25 23 22 19 17 16 19 21 23 26 27 30 35 42 54 66 75 87 96 104
50 50 47 45 54 60 54 57 56 63 71 72 70 77 84 80 80 80 62 61 63 56 42 40 39 38 33 29 26 23 21 18 17 13 13 16 19 21 22 24 28 34 41 48 59 70 78 88 100
49 45 50 54 56 52 55 57 61 63 63 66 70 78 78 78 77 71 58 62 60 49 39 40 40 37 33 30 27 22 17 14 10 8 9 12 15 20 22 23 28 34 40 45 55 64 72 83 94
51 51 54 52 50 53 57 55 59 59 61 64 72 73 74 76 75 63 56 60 55 43 37 38 40 36 33 30 27 20 12 8 3 5 8 12 16 19 21 23 26 30 36 42 48 58 68 77 89
51 56 47 48 57 53 49 52 62 60 61 71 71 74 75 70 71 57 55 55 51 39 37 38 41 37 33 30 23 16 7 3 3 6 10 13 16 19 22 24 26 29 34 41 45 54 65 73 82
54 51 49 54 54 58 57 56 62 66 71 70 68 77 70 67 64 54 53 51 46 35 34 38 39 35 34 28 21 14 6 6 6 7 10 13 17 20 22 26 32 36 35 37 44 54 66 72 75
58 53 51 54 60 62 59 60 63 65 68 68 67 73 67 64 59 52 50 47 41 30 31 38 37 35 33 27 20 13 10 11 10 11 15 19 20 23 28 29 33 35 35 39 44 54 63 66 71
55 56 61 60 60 65 63 65 65 66 65 69 69 64 62 60 53 48 45 42 37 26 28 37 36 35 32 27 18 15 15 16 17 20 26 26 22 25 28 31 32 34 35 37 43 51 59 64 64
69 72 67 67 71 71 65 66 61 61 67 66 61 59 58 60 46 43 42 39 34 25 27 34 35 33 28 23 18 18 19 24 27 26 32 27 20 28 24 24 20 20 27 28 30 46 54 56 58
71 73 73 73 73 70 64 59 58 68 66 59 54 51 50 48 40 39 39 36 32 23 22 31 33 31 27 20 20 22 24 25 25 26 30 32 33 31 30 29 34 37 36 35 36 41 45 50 51
68 73 73 71 69 66 66 69 65 62 58 52 50 44 41 38 36 37 35 35 30 21 18 27 29 28 25 19 19 21 25 22 26 34 39 41 35 29 38 41 42 40 39 40 37 42 43 45 46
68 66 64 62 63 62 61 57 62 57 53 49 45 39 36 37 38 35 32 32 28 19 16 24 26 25 23 20 17 23 20 30 41 40 48 47 42 33 39 43 42 40 35 42 36 34 37 36 37
63 60 61 61 61 59 60 57 55 52 50 45 38 33 33 34 35 31 28 29 26 15 14 20 25 23 22 23 20 24 26 36 37 43 50 42 46 43 44 46 40 36 37 38 37 32 36 33 33
55 58 59 61 60 58 56 52 52 46 42 36 30 21 26 29 31 27 25 27 23 13 12 15 23 20 21 22 20 23 32 33 36 43 46 43 46 50 45 45 37 39 40 36 34 31 33 33 30
43 42 43 46 46 46 48 44 39 30 29 25 20 15 20 27 26 25 24 25 21 15 8 12 18 17 18 21 20 18 28 34 31 34 36 41 44 42 44 31 36 41 43 44 39 35 32 33 31
35 32 38 31 34 32 32 28 23 23 20 16 12 12 15 25 24 22 22 23 21 16 7 8 12 17 16 18 20 18 18 31 32 33 37 48 40 44 42 35 34 34 35 38 40 36 34 33 32
25 30 29 32 26 24 15 18 16 17 16 15 9 6 14 24 23 20 19 20 20 19 8 6 6 14 16 14 17 18 15 23 34 33 38 37 40 37 38 36 35 34 33 34 39 39 39 37 35
27 25 29 32 25 15 10 16 14 14 14 9 10 7 16 21 19 18 15 16 16 18 17 6 5 9 14 11 14 16 17 20 37 27 35 33 37 38 33 33 34 32 31 30 32 33 35 35 33
27 24 24 29 22 14 13 10 13 16 14 8 11 11 16 16 15 14 11 13 13 14 17 9 7 5 9 12 12 14 17 24 37 24 29 37 33 37 36 30 25 30 32 30 26 25 23 28 26
Wind_Direction
313 315 318 316 313 318 307 306 317 322 321 309 298 291 293 298 307 314 318 315 315 310 307 301 295 285 277 268 265 264 261 257 254 252 252 249 249 248 245 243 240 241 239 237 233 226 228 229 231
312 314 326 319 307 316 308 306 311 317 322 313 305 302 299 302 307 318 319 318 319 308 300 298 295 287 281 274 266 261 259 257 256 255 252 248 244 246 244 242 241 238 239 237 234 230 224 226 229
310 308 322 314 321 315 308 311 311 312 311 319 317 305 306 309 316 322 320 320 318 313 310 307 299 295 289 281 271 264 259 254 253 252 253 251 246 241 240 240 238 238 236 237 236 233 228 224 227
307 305 315 318 314 307 307 309 311 312 303 318 323 308 308 314 322 321 323 324 321 319 317 313 309 307 301 288 279 270 261 254 250 248 248 248 248 244 241 238 236 234 235 235 235 233 230 227 223
308 307 308 318 315 299 309 312 314 309 297 312 316 314 313 319 320 323 325 323 322 321 316 314 314 312 304 293 281 270 261 256 252 248 246 246 247 246 242 239 236 232 231 232 233 233 232 228 225
303 300 313 318 315 303 309 310 307 308 296 310 316 316 314 321 322 326 327 324 322 320 319 319 317 313 304 298 296 285 271 262 255 253 250 246 245 245 244 241 235 233 229 229 228 230 229 230 227
292 302 309 316 310 301 312 305 307 310 309 308 320 314 314 320 322 324 327 324 323 319 319 319 316 311 302 301 300 296 291 277 264 256 251 251 248 244 242 240 238 232 230 228 226 226 227 229 228
291 302 306 315 309 306 303 297 297 309 315 315 320 314 318 324 324 327 328 327 323 322 323 321 316 312 307 306 304 298 287 278 269 262 256 251 249 247 242 239 238 234 229 227 225 223 224 225 226
296 299 308 312 303 309 299 294 300 310 313 314 318 317 320 325 326 330 329 327 325 325 325 322 317 315 312 313 309 302 293 280 272 263 256 251 249 247 244 239 237 232 229 226 223 221 221 223 223
293 299 305 302 304 305 301 301 306 312 310 309 318 324 327 325 329 327 327 326 326 327 326 323 320 319 318 317 312 303 295 290 284 268 256 252 246 247 246 242 235 229 225 223 221 219 219 221 219
296 300 300 297 300 302 302 295 308 308 305 311 317 323 323 324 328 328 327 327 328 326 325 324 327 326 323 321 313 307 298 291 289 277 264 251 245 240 239 236 232 223 220 218 217 216 215 217 217
296 297 293 292 298 302 299 297 305 304 307 311 315 322 323 327 329 327 328 329 329 328 327 328 332 333 330 325 319 313 301 296 292 276 257 242 235 231 228 223 221 218 216 215 212 212 212 212 214
288 287 285 289 297 300 299 302 299 304 307 313 318 323 325 328 327 327 327 330 329 328 328 336 338 337 335 332 328 322 313 303 290 268 245 227 221 220 215 215 212 209 209 209 210 208 210 209 210
284 280 289 295 294 294 297 295 297 303 308 312 320 323 326 326 324 326 329 331 331 332 335 346 344 339 340 339 336 332 321 309 285 249 219 207 206 206 206 208 208 204 202 202 205 204 205 206 206
274 285 288 293 286 294 301 299 299 302 310 314 319 325 326 323 326 327 332 332 332 334 341 346 347 346 343 346 342 337 330 321 266 203 183 187 194 197 199 198 202 197 197 199 200 199 202 203 205
276 288 287 278 285 291 299 298 300 304 309 312 318 321 324 322 329 329 333 334 333 336 340 346 351 347 347 352 345 345 339 346 120 162 177 184 186 182 184 183 184 183 186 191 194 194 196 199 203
279 280 280 279 284 291 298 297 299 303 309 313 315 319 321 323 329 330 333 336 335 337 340 349 355 351 355 357 356 358 21 63 103 144 168 167 170 166 171 172 173 170 174 182 185 189 191 195 199
278 280 277 275 281 291 296 298 301 305 306 308 314 318 322 323 328 330 333 338 339 340 345 348 360 359 0 6 7 22 72 77 109 134 147 152 161 165 165 163 174 165 168 172 179 185 189 192 195
261 260 268 277 281 289 293 296 300 302 306 309 314 316 320 321 327 329 334 342 345 343 350 353 5 4 6 15 27 52 73 100 122 136 134 143 155 160 159 161 167 168 166 171 175 182 187 188 192
266 268 272 280 283 287 289 293 296 298 304 307 310 315 317 323 327 330 338 347 349 341 346 355 8 8 11 21 50 83 100 111 126 137 142 146 138 133 137 135 133 143 153 152 173 179 182 186 190
270 271 274 280 282 286 287 287 290 298 301 303 308 311 318 321 325 336 342 350 350 345 347 356 11 14 20 36 70 94 104 118 134 138 137 134 133 119 118 120 125 127 133 142 155 167 174 179 187
271 272 274 278 279 279 283 286 290 296 296 299 308 305 315 326 333 340 344 351 353 354 355 359 14 21 32 44 82 103 114 131 141 143 130 107 95 116 124 123 125 129 136 141 145 157 166 174 178
273 276 276 278 280 280 281 287 293 294 295 304 302 305 307 327 333 340 348 351 357 8 9 8 19 27 42 59 102 124 133 136 136 141 125 117 118 133 130 122 124 129 128 133 128 152 157 166 177
273 275 275 276 276 279 283 287 288 291 293 298 297 307 307 326 327 338 353 352 2 11 15 15 26 31 49 61 101 129 147 149 150 140 138 137 137 145 135 126 131 123 145 142 144 140 155 154 164
270 269 270 271 274 275 280 284 285 289 292 285 298 303 319 332 326 339 359 355 4 18 20 23 25 36 49 62 86 133 155 157 154 152 146 153 146 142 143 136 132 154 145 149 149 149 157 143 164
275 276 274 270 272 275 276 277 282 286 278 284 294 299 326 332 330 342 359 359 8 23 37 37 28 41 51 64 73 106 159 162 155 160 149 159 151 146 145 141 161 156 157 156 159 159 165 172 168
270 274 267 270 266 270 273 275 273 266 276 278 280 305 331 336 332 345 359 2 13 29 55 37 43 41 64 63 74 82 129 166 158 165 153 162 158 155 158 161 162 159 165 165 168 173 175 175 183
269 268 271 266 266 265 285 288 266 253 264 277 315 308 337 338 331 346 3 4 12 33 62 69 72 58 61 82 79 84 100 155 161 167 154 161 169 167 168 170 172 173 176 180 182 180 184 189 193
262 270 276 261 245 225 279 291 253 245 254 266 254 308 330 328 325 343 8 8 11 35 45 103 97 72 58 82 100 93 103 136 157 151 169 168 167 174 178 178 181 185 190 195 197 194 200 200 209
261 271 267 244 235 239 266 248 255 244 270 255 262 290 327 318 323 343 16 15 11 36 46 50 127 102 77 78 109 115 115 141 164 161 161 176 174 179 183 181 188 194 195 187 190 205 214 222 221
Height
10922 10922 10920 10917 10916 10908 10903 10901 10895 10892 10888 10881 10878 10869 10863 10861 10855 10849 10839 10832 10824 10811 10801 10791 10782 10773 10768 10763 10758 10751 10750 10751 10757 10761 10767 10773 10780 10788 10801 10813 10825 10834 10848 10859 10868 10877 10887 10895 10902
10916 10916 10914 10910 10907 10903 10898 10894 10889 10885 10881 10875 10869 10861 10852 10851 10843 10836 10827 10817 10809 10799 10791 10779 10767 10755 10747 10742 10737 10732 10730 10730 10732 10735 10738 10744 10753 10763 10772 10787 10799 10813 10826 10840 10851 10860 10872 10882 10890
10912 10910 10908 10904 10898 10893 10892 10889 10880 10873 10871 10868 10858 10849 10846 10839 10834 10822 10812 10799 10785 10775 10769 10760 10750 10739 10729 10721 10715 10712 10710 10712 10712 10713 10716 10719 10726 10736 10744 10758 10773 10791 10806 10817 10832 10844 10855 10869 10877
10904 10903 10903 10901 10890 10882 10882 10882 10878 10869 10858 10860 10853 10842 10835 10827 10819 10810 10797 10783 10770 10760 10748 10740 10731 10720 10710 10702 10698 10694 10691 10691 10691 10692 10693 10696 10699 10708 10720 10731 10745 10764 10781 10797 10812 10826 10838 10852 10865
10899 10897 10897 10894 10888 10874 10874 10872 10868 10863 10853 10848 10846 10835 10829 10819 10808 10797 10784 10771 10757 10746 10736 10726 10715 10706 10694 10686 10682 10678 10676 10675 10673 10671 10673 10677 10679 10685 10695 10705 10719 10738 10754 10774 10791 10806 10819 10834 10849
10892 10889 10889 10888 10881 10870 10868 10865 10860 10853 10844 10842 10837 10827 10819 10808 10798 10788 10773 10759 10747 10734 10720 10711 10701 10691 10681 10673 10668 10663 10661 10659 10657 10656 10656 10657 10661 10666 10674 10684 10696 10713 10733 10750 10768 10784 10797 10811 10831
10885 10882 10881 10879 10876 10867 10861 10855 10852 10846 10836 10831 10830 10822 10814 10801 10790 10778 10762 10749 10736 10723 10712 10699 10688 10678 10670 10665 10660 10653 10647 10645 10644 10643 10642 10641 10645 10649 10655 10664 10674 10691 10712 10726 10743 10758 10779 10791 10810
10879 10876 10873 10870 10868 10863 10854 10849 10846 10843 10834 10823 10819 10813 10804 10790 10779 10768 10749 10735 10724 10712 10700 10686 10675 10667 10660 10653 10648 10643 10638 10634 10633 10630 10629 10629 10632 10635 10640 10647 10657 10674 10690 10700 10718 10740 10762 10773 10793
10871 10867 10864 10863 10861 10858 10850 10843 10840 10834 10827 10816 10809 10800 10789 10776 10764 10749 10736 10725 10712 10701 10689 10676 10664 10656 10650 10643 10636 10630 10625 10623 10622 10620 10620 10619 10621 10623 10628 10636 10645 10657 10669 10682 10699 10722 10745 10756 10778
10863 10860 10855 10855 10854 10850 10844 10837 10832 10826 10820 10811 10802 10789 10777 10768 10759 10746 10733 10718 10705 10691 10679 10667 10657 10649 10642 10635 10628 10622 10617 10613 10612 10611 10610 10611 10612 10615 10619 10626 10634 10643 10653 10666 10685 10704 10724 10740 10764
10851 10853 10847 10845 10847 10842 10837 10829 10824 10818 10815 10806 10795 10788 10778 10768 10754 10740 10726 10711 10699 10685 10672 10661 10653 10643 10635 10627 10621 10615 10610 10606 10604 10603 10602 10603 10606 10608 10612 10617 10625 10633 10642 10653 10670 10690 10707 10724 10752
10841 10842 10839 10835 10832 10832 10829 10822 10814 10808 10802 10796 10788 10780 10769 10757 10742 10730 10717 10704 10692 10678 10666 10656 10647 10637 10628 10620 10615 10609 10603 10599 10597 10595 10595 10597 10600 10602 10606 10610 10617 10624 10633 10643 10657 10675 10692 10713 10737
10834 10833 10830 10829 10826 10821 10819 10813 10806 10799 10791 10785 10777 10770 10759 10746 10736 10725 10712 10699 10686 10674 10661 10651 10641 10631 10623 10615 10609 10602 10597 10594 10592 10590 10590 10591 10594 10598 10601 10606 10611 10617 10624 10635 10649 10666 10685 10706 10724
10827 10826 10823 10822 10818 10816 10811 10803 10800 10794 10786 10779 10770 10761 10751 10740 10731 10720 10707 10693 10681 10669 10657 10647 10637 10628 10618 10612 10605 10598 10594 10590 10588 10587 10587 10589 10591 10594 10597 10602 10606 10611 10619 10629 10641 10659 10677 10696 10714
10819 10819 10816 10814 10809 10807 10804 10794 10789 10788 10780 10772 10765 10756 10748 10737 10726 10714 10702 10689 10676 10664 10654 10644 10634 10624 10616 10609 10602 10596 10592 10588 10585 10585 10585 10586 10588 10591 10596 10600 10603 10609 10618 10629 10640 10655 10673 10691 10709
10811 10811 10808 10807 10802 10800 10797 10791 10781 10780 10774 10767 10760 10750 10741 10732 10721 10709 10698 10686 10673 10662 10651 10641 10632 10623 10614 10607 10601 10595 10590 10587 10586 10585 10584 10585 10588 10591 10594 10598 10603 10610 10618 10628 10640 10653 10670 10686 10704
10799 10801 10801 10796 10792 10790 10791 10784 10774 10771 10766 10758 10754 10744 10736 10725 10717 10706 10695 10683 10670 10659 10650 10641 10632 10623 10613 10608 10601 10595 10591 10589 10589 10588 10586 10588 10590 10593 10596 10600 10605 10611 10619 10629 10640 10652 10666 10684 10703
10791 10791 10791 10787 10783 10777 10778 10776 10770 10766 10762 10753 10746 10738 10730 10721 10713 10703 10693 10681 10668 10658 10649 10641 10633 10623 10615 10609 10602 10597 10594 10594 10593 10592 10592 10592 10594 10596 10600 10604 10610 10613 10620 10630 10641 10653 10667 10686 10702
10779 10779 10779 10779 10775 10771 10770 10766 10760 10756 10753 10746 10738 10731 10726 10717 10710 10701 10691 10679 10667 10658 10650 10642 10634 10625 10618 10612 10607 10602 10600 10599 10599 10599 10600 10600 10602 10605 10608 10611 10615 10618 10627 10635 10646 10658 10671 10686 10706
10769 10768 10770 10767 10764 10765 10764 10759 10756 10750 10747 10739 10733 10727 10720 10713 10706 10698 10688 10678 10666 10658 10651 10644 10637 10629 10622 10617 10612 10610 10608 10609 10609 10608 10609 10609 10613 10615 10616 10624 10629 10635 10639 10647 10657 10666 10678 10694 10710
10753 10754 10757 10758 10754 10754 10755 10750 10748 10744 10740 10735 10730 10723 10716 10710 10704 10696 10685 10677 10668 10659 10652 10646 10640 10633 10627 10623 10620 10618 10618 10619 10620 10617 10619 10621 10621 10625 10628 10633 10638 10642 10649 10655 10663 10674 10686 10697 10712
10738 10737 10743 10744 10741 10744 10743 10742 10740 10737 10731 10729 10725 10719 10713 10707 10701 10693 10684 10677 10669 10660 10654 10649 10643 10639 10633 10629 10627 10627 10627 10628 10627 10626 10629 10634 10636 10640 10640 10644 10649 10654 10661 10667 10675 10683 10693 10704 10714
10721 10727 10727 10729 10727 10731 10729 10734 10729 10725 10720 10721 10717 10714 10709 10703 10698 10691 10683 10676 10669 10661 10657 10653 10648 10644 10639 10635 10633 10634 10635 10636 10635 10634 10638 10639 10645 10651 10651 10655 10661 10666 10672 10677 10684 10691 10700 10710 10719
10709 10712 10713 10714 10714 10719 10718 10722 10719 10717 10713 10714 10712 10710 10705 10699 10695 10690 10683 10675 10669 10663 10659 10656 10652 10648 10645 10642 10639 10639 10643 10642 10641 10644 10645 10648 10649 10657 10660 10664 10670 10676 10680 10687 10694 10702 10707 10714 10722
10698 10699 10701 10701 10703 10707 10708 10712 10710 10710 10708 10706 10706 10704 10701 10696 10693 10688 10681 10675 10671 10665 10661 10659 10656 10653 10650 10647 10645 10645 10647 10648 10650 10650 10655 10657 10660 10663 10669 10673 10678 10682 10688 10694 10701 10708 10714 10722 10727
10690 10690 10691 10689 10693 10696 10698 10700 10702 10702 10701 10701 10700 10700 10696 10694 10691 10687 10680 10675 10672 10666 10664 10662 10660 10657 10655 10653 10651 10649 10651 10653 10658 10660 10661 10664 10669 10671 10677 10681 10684 10688 10694 10699 10707 10713 10720 10726 10733
10681 10683 10678 10684 10684 10686 10688 10692 10696 10695 10695 10696 10697 10696 10694 10692 10690 10686 10680 10675 10672 10667 10665 10664 10663 10661 10661 10659 10656 10655 10654 10657 10662 10665 10668 10671 10675 10678 10682 10686 10691 10697 10702 10707 10712 10718 10724 10730 10735
10675 10673 10676 10677 10680 10680 10681 10683 10686 10689 10689 10693 10693 10693 10690 10690 10688 10685 10679 10675 10673 10668 10666 10666 10666 10665 10665 10665 10663 10661 10659 10660 10666 10671 10674 10677 10682 10685 10688 10692 10696 10700 10704 10709 10715 10720 10725 10731 10736
10669 10671 10670 10671 10673 10672 10675 10679 10680 10680 10683 10688 10690 10689 10688 10689 10687 10684 10679 10676 10675 10671 10668 10669 10669 10669 10669 10669 10669 10668 10666 10666 10672 10676 10679 10682 10685 10689 10693 10696 10701 10705 10709 10714 10719 10724 10728 10733 10736
10662 10664 10664 10665 10664 10668 10671 10674 10676 10674 10680 10684 10687 10687 10686 10687 10685 10683 10678 10676 10676 10673 10670 10670 10671 10672 10672 10672 10672 10674 10674 10674 10676 10679 10682 10686 10689 10694 10697 10700 10704 10707 10710 10714 10718 10724 10729 10733 10736